Meriden, CT

7:05 AM EST on November 12, 2019 (GMT -0500)
Meriden Markham Municipal

Weather History for KMMK - July, 2019

Change the Weather History Date:

Monday, July 15, 2019

  Actual Average (WUND) Record (WUND)
Temperature  
Mean Temperature 74 °F -  
Max Temperature 89 °F - - (-1)
Min Temperature 61 °F - - (-1)
Cooling Degree Days 10    
Growing Degree Days 24 (Base 50)    
Moisture  
Dew Point 56 °F    
Average Humidity 54    
Maximum Humidity 87    
Minimum Humidity 29    
Precipitation  
Precipitation 0.00 in - - ()
Sea Level Pressure  
Sea Level Pressure 30.02 in    
Wind  
Wind Speed 5 mph (NW)    
Max Wind Speed 12 mph    
Max Gust Speed 17 mph    
Visibility 10 miles    
Events      
Averages and records for this station are not official NWS values.
T = Trace of Precipitation, MM = Missing Value Source: NWS Daily Summary

Daily Weather History Graph

Daily Weather History Graph

Search for Another Location

Airport or City:

Astronomy

Jul. 15, 2019 Rise Set
Actual Time 5:30 AM EDT 8:23 PM EDT
Civil Twilight 4:57 AM EDT 8:56 PM EDT
Nautical Twilight 4:15 AM EDT 9:38 PM EDT
Astronomical Twilight 3:27 AM EDT 10:26 PM EDT
Moon 7:39 PM EDT (7/15) 4:15 AM EDT (7/15)
Length of Visible Light 15h 59m
Length of Day
14h 53m
Waxing Gibbous, 98% of the Moon is Illuminated
Jul 15
Waxing Gibbous
Jul 16
Full
Jul 24
Last Quarter
Jul 31
New
Aug 7
First Quarter

Hourly Weather History & Observations

Time (EDT) Temp. Heat Index Dew Point Humidity Pressure Visibility Wind Dir Wind Speed Gust Speed Precip Events Conditions
12:53 AM 73.9 °F - 57.0 °F 55% 29.98 in 10.0 mi NW 11.5 mph - N/A   Clear
1:53 AM 72.0 °F - 57.0 °F 59% 30.00 in 10.0 mi NNW 4.6 mph - N/A   Clear
2:53 AM 66.9 °F - 57.9 °F 73% 30.00 in 10.0 mi Calm Calm - N/A   Clear
3:53 AM 63.0 °F - 57.9 °F 84% 30.01 in 10.0 mi Calm Calm - N/A   Clear
4:53 AM 64.0 °F - 57.0 °F 78% 30.02 in 10.0 mi North 3.5 mph - N/A   Clear
5:53 AM 61.0 °F - 57.0 °F 87% 30.04 in 10.0 mi Calm Calm - N/A   Clear
6:53 AM 64.9 °F - 59.0 °F 81% 30.05 in 10.0 mi Calm Calm - N/A   Clear
7:53 AM 73.0 °F - 59.0 °F 61% 30.06 in 10.0 mi Calm Calm - N/A   Clear
8:53 AM 75.9 °F - 57.9 °F 54% 30.06 in 10.0 mi NW 4.6 mph - N/A   Clear
9:53 AM 79.0 °F - 57.0 °F 47% 30.06 in 10.0 mi West 6.9 mph - N/A   Clear
10:53 AM 81.0 °F 81.0 °F 57.0 °F 44% 30.05 in 10.0 mi North 4.6 mph - N/A   Partly Cloudy
11:53 AM 82.0 °F 81.6 °F 55.9 °F 41% 30.04 in 10.0 mi NW 9.2 mph - N/A   Clear
12:53 PM 84.0 °F 82.6 °F 54.0 °F 35% 30.04 in 10.0 mi WNW 11.5 mph 17.3 mph N/A   Clear
1:53 PM 84.9 °F 83.6 °F 55.0 °F 36% 30.01 in 10.0 mi West 10.4 mph - N/A   Clear
2:53 PM 87.1 °F - 52.0 °F 30% 30.00 in 10.0 mi Variable 3.5 mph - N/A   Clear
3:53 PM 87.1 °F 85.3 °F 55.0 °F 33% 29.99 in 10.0 mi Variable 4.6 mph - N/A   Clear
4:53 PM 88.0 °F - 52.0 °F 29% 29.99 in 10.0 mi NW 5.8 mph - N/A   Clear
5:53 PM 87.1 °F - 51.1 °F 29% 29.99 in 10.0 mi NNW 9.2 mph - N/A   Clear
6:53 PM 86.0 °F 84.2 °F 54.0 °F 33% 29.99 in 10.0 mi NW 4.6 mph - N/A   Clear
7:53 PM 81.0 °F 80.7 °F 55.0 °F 41% 30.00 in 10.0 mi North 3.5 mph - N/A   Clear
8:53 PM 73.0 °F - 57.9 °F 59% 30.02 in 10.0 mi Calm Calm - N/A   Clear
9:53 PM 69.1 °F - 57.9 °F 68% 30.04 in 10.0 mi Calm Calm - N/A   Clear
10:53 PM 66.9 °F - 57.9 °F 73% 30.04 in 10.0 mi Calm Calm - N/A   Partly Cloudy
11:53 PM 66.0 °F - 57.0 °F 73% 30.06 in 10.0 mi Calm Calm - N/A   Clear